EW9889 Weather Reports


Display with metric or nautical units.
time (UTC)temp
F
wind
direction
speed
MPH
gust
MPH
rain 1hr
in
rain 24hr
in
rain mn
in
humidity
%
barometer
mb
20260505032039 77 71 0.0 2.0 0.00 0.00 0.00 91 1016.8
20260505031552 77 71 1.0 2.0 0.00 0.00 0.00 90 1016.8
20260505031040 77 71 0.0 2.0 0.00 0.00 0.00 90 1016.8
20260505030539 77 71 0.0 2.0 0.00 0.00 0.00 90 1016.9
20260505030039 77 71 1.0 2.0 0.00 0.00 0.00 90 1016.8
20260505025538 77 71 1.0 4.0 0.00 0.00 0.00 90 1016.7
20260505025036 77 70 1.0 4.0 0.00 0.00 0.00 90 1016.8
20260505024546 77 66 1.0 4.0 0.00 0.00 0.00 90 1016.7
20260505024035 77 82 1.0 3.0 0.00 0.00 0.00 90 1016.7
20260505023535 77 98 1.0 3.0 0.00 0.00 0.00 90 1016.7
20260505023040 77 66 1.0 3.0 0.00 0.00 0.00 89 1016.6
20260505022534 77 66 1.0 3.0 0.00 0.00 0.00 89 1016.7
20260505022033 77 70 2.0 3.0 0.00 0.00 0.00 89 1016.7
20260505021533 77 83 1.0 3.0 0.00 0.00 0.00 89 1016.6
20260505021031 77 85 1.0 3.0 0.00 0.00 0.00 89 1016.5
20260505020531 77 77 2.0 3.0 0.00 0.00 0.00 89 1016.6
20260505020030 77 59 1.0 2.0 0.00 0.00 0.00 89 1016.5
20260505015530 78 67 1.0 3.0 0.00 0.00 0.00 88 1016.5
20260505015029 78 61 1.0 3.0 0.00 0.00 0.00 88 1016.4
20260505014536 78 74 1.0 2.0 0.00 0.00 0.00 88 1016.4
20260505014027 78 71 1.0 3.0 0.00 0.00 0.00 88 1016.4
20260505013527 78 73 1.0 3.0 0.00 0.00 0.00 88 1016.4
20260505013027 78 59 1.0 3.0 0.00 0.00 0.00 88 1016.3
20260505012526 78 62 1.0 3.0 0.00 0.00 0.00 87 1016.3
20260505012024 78 62 1.0 3.0 0.00 0.00 0.00 87 1016.3
20260505011524 78 62 1.0 3.0 0.00 0.00 0.00 87 1016.2
20260505011023 79 67 1.0 2.0 0.00 0.00 0.00 87 1016.2
20260505010521 79 67 0.0 3.0 0.00 0.00 0.00 86 1016.1
20260505010021 79 67 1.0 3.0 0.00 0.00 0.00 86 1016.1
20260505005520 79 66 1.0 3.0 0.00 0.00 0.00 86 1016.0
20260505005020 79 71 1.0 2.0 0.00 0.00 0.00 86 1016.1
20260505004521 79 71 0.0 2.0 0.00 0.00 0.00 86 1015.9
20260505004019 79 63 0.0 2.0 0.00 0.00 0.00 86 1016.0
20260505003523 79 63 0.0 2.0 0.00 0.00 0.00 85 1016.0
20260505003018 79 63 0.0 2.0 0.00 0.00 0.00 85 1016.0
20260505002517 79 63 1.0 2.0 0.00 0.00 0.00 84 1015.9
20260505002017 80 63 0.0 3.0 0.00 0.00 0.00 84 1015.9
20260505001517 80 63 1.0 3.0 0.00 0.00 0.00 84 1015.8
20260505001015 80 51 1.0 2.0 0.00 0.00 0.00 83 1015.8
20260505000514 80 51 0.0 2.0 0.00 0.00 0.00 83 1015.9
20260505000015 80 51 0.0 2.0 0.00 0.00 0.00 82 1015.8
20260504235513 80 51 1.0 2.0 0.00 0.00 0.00 82 1015.8
20260504235013 81 44 0.0 2.0 0.00 0.00 0.00 81 1015.8
20260504234512 81 44 0.0 2.0 0.00 0.00 0.00 80 1015.7
20260504234013 81 44 0.0 2.0 0.00 0.00 0.00 80 1015.6
20260504233510 81 44 0.0 2.0 0.00 0.00 0.00 79 1015.6
20260504233008 82 44 0.0 2.0 0.00 0.00 0.00 79 1015.6
20260504232508 82 91 0.0 2.0 0.00 0.00 0.00 78 1015.7
20260504232006 82 91 0.0 2.0 0.00 0.00 0.00 78 1015.6
20260504231505 0 0.0 0.0 0.00 0.00 0.00 1015.5
20260504212028 84 42 3.0 9.0 0.00 0.00 0.00 75 1014.2
20260504211531 84 336 2.0 9.0 0.00 0.00 0.00 75 1014.4
20260504211023 84 61 3.0 9.0 0.00 0.00 0.00 76 1014.3
20260504210523 84 10 3.0 10.0 0.00 0.00 0.00 76 1014.3
20260504210034 84 36 4.0 10.0 0.00 0.00 0.00 74 1014.3
20260504205523 84 11 4.0 10.0 0.00 0.00 0.00 74 1014.3
20260504205022 85 85 1.0 5.0 0.00 0.00 0.00 73 1014.3
20260504204531 85 294 2.0 6.0 0.00 0.00 0.00 73 1014.3
20260504204022 85 360 1.0 5.0 0.00 0.00 0.00 72 1014.3
20260504203522 85 15 1.0 9.0 0.00 0.00 0.00 70 1014.4
20260504203026 85 77 3.0 11.0 0.00 0.00 0.00 70 1014.3
20260504202522 85 73 5.0 11.0 0.00 0.00 0.00 68 1014.3
20260504202022 85 5 4.0 10.0 0.00 0.00 0.00 70 1014.2
20260504201521 85 15 4.0 10.0 0.00 0.00 0.00 73 1014.4
20260504201021 85 57 5.0 12.0 0.00 0.00 0.00 72 1014.4
20260504200521 85 71 8.0 12.0 0.00 0.00 0.00 71 1014.4
20260504200021 86 78 4.0 11.0 0.00 0.00 0.00 69 1014.3
20260504195520 86 212 4.0 16.0 0.00 0.00 0.00 69 1014.4
20260504195021 86 92 8.0 16.0 0.00 0.00 0.00 70 1014.4
20260504194522 87 125 10.0 14.0 0.00 0.00 0.00 68 1014.3
20260504194021 87 271 4.0 12.0 0.00 0.00 0.00 67 1014.3
20260504193519 88 15 3.0 8.0 0.00 0.00 0.00 69 1014.2
20260504193018 87 291 2.0 5.0 0.00 0.00 0.00 70 1014.5
20260504192518 87 299 1.0 6.0 0.00 0.00 0.00 70 1014.6
20260504192017 87 262 1.0 6.0 0.00 0.00 0.00 70 1014.8
20260504173007 87 64 3.0 13.0 0.00 0.00 0.00 68 1015.7
20260504172505 87 68 8.0 13.0 0.00 0.00 0.00 66 1015.5
20260504172006 87 355 3.0 10.0 0.00 0.00 0.00 67 1015.7
20260504170503 87 60 4.0 11.0 0.00 0.00 0.00 68 1015.8
20260504151049 88 232 6.0 10.0 0.00 0.00 0.00 60 1016.2
20260504150550 88 229 5.0 9.0 0.00 0.00 0.00 61 1016.3
20260504141045 84 200 5.0 9.0 0.00 0.00 0.00 67 1016.5
20260504140549 85 200 5.0 10.0 0.00 0.00 0.00 67 1016.5
20260504130537 86 120 1.0 9.0 0.00 0.00 0.00 61 1016.4
20260504110508 78 107 4.0 9.0 0.00 0.00 0.00 77 1016.3
20260504100554 75 65 3.0 5.0 0.00 0.00 0.00 83 1016.0
20260504081544 75 88 3.0 5.0 0.00 0.00 0.00 82 1015.3
20260504081046 75 81 3.0 6.0 0.00 0.00 0.00 82 1015.2
20260504080546 75 90 3.0 8.0 0.00 0.00 0.00 82 1015.2